Weather History for Liberia, Costa Rica

Change the Weather History Date:

Saturday, August 31, 2013

  Actual Average Record
Temperature  
Mean Temperature 82 °F -  
Max Temperature 89 °F 85 °F 95 °F (1997)
Min Temperature 74 °F 73 °F 69 °F (2007)
Cooling Degree Days 16    
Growing Degree Days 32 (Base 50)    
Moisture  
Dew Point 74 °F    
Average Humidity 83    
Maximum Humidity 94    
Minimum Humidity 62    
Precipitation  
Precipitation 35.87 in - - ()
Sea Level Pressure  
Sea Level Pressure 29.87 in    
Wind  
Wind Speed 3 mph ()    
Max Wind Speed 10 mph    
Max Gust Speed -    
Visibility 6.8 miles    
Events Rain , Thunderstorm    
Averages and records for this station are not official NWS values.
T = Trace of Precipitation, MM = Missing Value Source: Averaged Metar Reports

Daily Weather History Graph

Daily Weather History Graph

Search for Another Location

Airport:

Trip Planner

Search our weather history database for the weather conditions in past years. The results will help you decide how hot, cold, wet, or windy it might be!

Date:

Astronomy

Aug. 31, 2013 Rise Set
Actual Time 5:32 AM CST 5:51 PM CST
Civil Twilight 5:11 AM CST 6:13 PM CST
Nautical Twilight 4:46 AM CST 6:38 PM CST
Astronomical Twilight 4:21 AM CST 7:02 PM CST
Moon 1:30 AM CST (8/31) 2:22 PM CST (8/31)
Length of Visible Light 13h 01m
Length of Day
12h 19m
Waning Crescent, 20% of the Moon is Illuminated
Aug 31
Waning Crescent
Sep 5
New
Sep 12
First Quarter
Sep 19
Full
Sep 26
Last Quarter

Hourly Weather History & Observations

Time (CST) Temp. Heat Index Dew Point Humidity Pressure Visibility Wind Dir Wind Speed Gust Speed Precip Events Conditions
6:00 AM 76 °F - 73 °F 89% 29.90 in 2 mi Calm Calm - -   Overcast
6:00 AM 75.2 °F - 73.4 °F 94% 29.89 in 6.2 mi Calm Calm - N/A   Scattered Clouds
7:00 AM 77.0 °F - 75.2 °F 94% 29.90 in 6.2 mi Calm Calm - N/A   Mostly Cloudy
8:00 AM 80.6 °F 86.2 °F 75.2 °F 84% 29.90 in 6.2 mi Calm Calm - N/A   Mostly Cloudy
9:00 AM 81 °F - 76 °F 79% 29.92 in 12 mi WSW 4.6 mph - -   Overcast
9:00 AM 80.6 °F 86.2 °F 75.2 °F 84% 29.91 in 6.2 mi WSW 4.6 mph - N/A   Scattered Clouds
10:00 AM 84.2 °F 92.3 °F 75.2 °F 74% 29.89 in 6.2 mi WNW 4.6 mph - N/A   Scattered Clouds
11:00 AM 86.0 °F 95.1 °F 75.2 °F 70% 29.88 in 6.2 mi NW 4.6 mph - N/A   Overcast
12:00 PM 85 °F - 78 °F 73% 29.88 in 12 mi West 5.8 mph - -   Overcast
12:00 PM 86.0 °F 96.9 °F 77.0 °F 74% 29.87 in 6.2 mi West 5.8 mph - N/A   Mostly Cloudy
1:00 PM 89.6 °F 99.8 °F 75.2 °F 62% 29.83 in 6.2 mi SW 8.1 mph - N/A   Mostly Cloudy
2:00 PM 78.8 °F - 69.8 °F 74% 29.84 in 6.2 mi NNW 10.4 mph - N/A Rain , Thunderstorm Rain Showers
3:00 PM 78 °F - 74 °F 86% 29.83 in 12 mi WSW 5.8 mph - - Rain Rain
3:00 PM 78.8 °F - 75.2 °F 89% 29.82 in 6.2 mi WSW 5.8 mph - N/A Rain Rain
4:00 PM 77.0 °F - 73.4 °F 89% 29.84 in 6.2 mi ESE 3.5 mph - N/A Rain Rain
5:00 PM 75.2 °F - 73.4 °F 94% 29.84 in 5.6 mi SE 8.1 mph - N/A Rain Light Rain
6:00 PM 74 °F - 72 °F 93% 29.88 in 6 mi SSE 8.1 mph - - Rain Light Rain
6:00 PM 75.2 °F - 71.6 °F 89% 29.86 in 6.2 mi SSE 8.1 mph - N/A Rain Light Rain
8:00 PM 75.2 °F - 73.4 °F 94% 29.90 in 5.6 mi South 6.9 mph - N/A   Drizzle